User: anonymous   Login
Location: Unspecified
(0.0000°N, 0.0000°E)
Time: 05:24:09
(UTC+00:00)
Language:

STARLINK-11118 [DTC] - Orbit

View from above orbital plane
View from above orbital plane
View from above satellite
View from above satellite

Ground track
Ground track

The orbit is defined by the following mean orbital elements,

1 59754U          26145.37816352 +.00000000 +00000-0 +94423-5 0 00003
2 59754  53.1590 188.5471 0000960  78.1892 281.9233 15.69711961    03
Epoch (UTC): 25 May 2026 09:04:33
Eccentricity: 0.0000960
inclination: 53.1590°
perigee height: 359 km
apogee height: 360 km
right ascension of ascending node: 188.5471°
argument of perigee: 78.1892°
revolutions per day: 15.69711961
mean anomaly at epoch: 281.9233°

The dashed part of the orbit path shows where the satellite is in the earth's shadow,  

DLR